Location: Haut Kerinec
(48.0623°N, 4.4081°W)
Time: 23:41:31
(UTC+00:00)

STARLINK-1254 - Visible Passes

Search period start: 01 October 2020 00:00
Search period end: 11 October 2020 00:00
Orbit: 549 x 550 km, 53.0° (Epoch: 01 October)

Date Brightness Start Highest point End Pass type
(mag) Time Alt. Az. Time Alt. Az. Time Alt. Az.
01 Oct 6.6 02:45:01 12° E 02:45:01 12° E 02:45:23 10° E visible
01 Oct 3.6 04:20:43 58° WSW 04:21:04 61° SSW 04:25:08 10° SE visible
02 Oct 4.1 04:16:12 43° S 04:16:12 43° S 04:19:30 10° SE visible
03 Oct 5.2 04:11:51 23° SSE 04:11:51 23° SSE 04:13:44 10° SSE visible
04 Oct 6.1 04:07:36 11° SSE 04:07:36 11° SSE 04:07:50 10° SSE visible
06 Oct 5.7 19:26:18 10° S 19:27:17 14° SSE 19:27:17 14° SSE visible
07 Oct 5.0 19:19:59 10° S 19:22:36 23° SSE 19:22:36 23° SSE visible
08 Oct 4.4 19:13:48 10° SSW 19:17:26 30° SE 19:17:42 30° SE visible
08 Oct 6.3 20:52:38 10° WSW 20:53:21 15° WSW 20:53:21 15° WSW visible
09 Oct 4.2 19:07:41 10° SSW 19:11:32 39° SE 19:12:35 33° ESE visible
09 Oct 6.0 20:46:53 10° W 20:48:14 20° W 20:48:14 20° W visible
10 Oct 3.9 19:01:37 10° SW 19:05:37 49° SE 19:07:18 30° E visible
10 Oct 5.8 20:41:08 10° W 20:42:56 24° W 20:42:56 24° W visible
